CCM66BM LFLL-LFKB

Flight info

Callsign CCM66BM
Flight time 0h 51m
Altitude 25000
Route ROMAM T43 BEPER DCT RETNO DCT KOLON DCT NARTI UP991 NIRDO
Aircraft A20N/M-SDE2E3FGHIRWXY/LB1

Departure

Time 2026-04-21 15:06
Airport Lyon Saint-Exupéry Airport (LFLL)

Arrival

Time 2026-04-21 15:57
Airport Bastia-Poretta International airport (LFKB)
Time Latitude Longitude Altitude Speed Heading
2026-04-21 14:49 45.71603 5.08210 802 ft 0 kts 195°
2026-04-21 14:55 45.71614 5.08214 802 ft 2 kts 193°
2026-04-21 14:55 45.71630 5.08219 802 ft 2 kts 193°
2026-04-21 14:55 45.71645 5.08221 801 ft 2 kts 161°
2026-04-21 14:56 45.71659 5.08210 801 ft 2 kts 127°
2026-04-21 14:56 45.71663 5.08203 801 ft 0 kts 112°
2026-04-21 14:59 45.71665 5.08224 801 ft 7 kts 79°
2026-04-21 15:00 45.71676 5.08298 800 ft 7 kts 82°
2026-04-21 15:00 45.71682 5.08380 800 ft 8 kts 84°
2026-04-21 15:00 45.71681 5.08448 801 ft 6 kts 101°
2026-04-21 15:00 45.71657 5.08491 802 ft 5 kts 150°
2026-04-21 15:01 45.71616 5.08502 802 ft 7 kts 173°
2026-04-21 15:01 45.71559 5.08511 803 ft 9 kts 174°
2026-04-21 15:01 45.71491 5.08519 804 ft 9 kts 177°
2026-04-21 15:01 45.71446 5.08524 807 ft 6 kts 175°
2026-04-21 15:02 45.71387 5.08530 811 ft 11 kts 175°
2026-04-21 15:02 45.71326 5.08538 812 ft 7 kts 175°
2026-04-21 15:02 45.71273 5.08544 813 ft 8 kts 175°
2026-04-21 15:02 45.71221 5.08550 814 ft 5 kts 174°
2026-04-21 15:03 45.71180 5.08558 813 ft 10 kts 167°
2026-04-21 15:03 45.71136 5.08596 814 ft 7 kts 131°
2026-04-21 15:03 45.71110 5.08673 819 ft 9 kts 107°
2026-04-21 15:03 45.71098 5.08738 819 ft 4 kts 105°
2026-04-21 15:04 45.71086 5.08806 820 ft 6 kts 103°
2026-04-21 15:04 45.71079 5.08850 820 ft 5 kts 103°
2026-04-21 15:04 45.71076 5.08886 818 ft 0 kts 92°
2026-04-21 15:05 45.71089 5.08958 820 ft 11 kts 60°
2026-04-21 15:05 45.71175 5.09020 819 ft 0 kts 358°
2026-04-21 15:05 45.71191 5.09019 819 ft 10 kts 357°
2026-04-21 15:06 45.71504 5.08982 814 ft 94 kts 355°
2026-04-21 15:06 45.72491 5.08867 1091 ft 176 kts 355°
2026-04-21 15:06 45.73808 5.08732 2190 ft 212 kts 355°
2026-04-21 15:06 45.75153 5.08569 2806 ft 181 kts 355°
2026-04-21 15:07 45.76437 5.08399 3407 ft 189 kts 355°
2026-04-21 15:07 45.77727 5.08216 4112 ft 186 kts 355°
2026-04-21 15:07 45.79042 5.08038 4778 ft 194 kts 356°
2026-04-21 15:07 45.80309 5.07983 5406 ft 195 kts 17°
2026-04-21 15:08 45.81082 5.08582 5904 ft 200 kts 47°
2026-04-21 15:08 45.81539 5.11274 6572 ft 238 kts 105°
2026-04-21 15:08 45.81021 5.12699 6797 ft 239 kts 134°
2026-04-21 15:08 45.79580 5.13881 7351 ft 255 kts 164°
2026-04-21 15:09 45.77921 5.14609 7834 ft 255 kts 162°
2026-04-21 15:09 45.76242 5.15554 8347 ft 262 kts 156°
2026-04-21 15:09 45.74674 5.16772 8872 ft 264 kts 149°
2026-04-21 15:09 45.73114 5.18079 9414 ft 265 kts 163°
2026-04-21 15:10 45.71403 5.18685 9943 ft 264 kts 173°
2026-04-21 15:10 45.69594 5.19051 10432 ft 268 kts 176°
2026-04-21 15:10 45.67718 5.19278 10923 ft 282 kts 180°
2026-04-21 15:10 45.65614 5.19387 11442 ft 323 kts 182°
2026-04-21 15:11 45.63254 5.19393 11953 ft 346 kts 184°
2026-04-21 15:11 45.60865 5.19341 12462 ft 346 kts 185°
2026-04-21 15:11 45.58439 5.19250 12993 ft 351 kts 186°
2026-04-21 15:11 45.56067 5.19136 13506 ft 354 kts 186°
2026-04-21 15:12 45.53895 5.19018 13955 ft 355 kts 187°
2026-04-21 15:12 45.51622 5.18885 14397 ft 359 kts 187°
2026-04-21 15:12 45.49146 5.18732 14873 ft 363 kts 187°
2026-04-21 15:12 45.46608 5.18572 15366 ft 366 kts 188°
2026-04-21 15:13 45.44055 5.18408 15869 ft 369 kts 188°
2026-04-21 15:13 45.41758 5.18257 16313 ft 373 kts 188°
2026-04-21 15:13 45.39586 5.18119 16742 ft 375 kts 188°
2026-04-21 15:13 45.37436 5.17984 17169 ft 378 kts 188°
2026-04-21 15:14 45.34785 5.17815 17695 ft 382 kts 188°
2026-04-21 15:14 45.32152 5.17649 18222 ft 386 kts 188°
2026-04-21 15:14 45.29450 5.17480 18703 ft 390 kts 188°
2026-04-21 15:14 45.26700 5.17308 19176 ft 391 kts 188°
2026-04-21 15:15 45.24251 5.17158 19618 ft 392 kts 188°
2026-04-21 15:15 45.21524 5.16993 20088 ft 395 kts 188°
2026-04-21 15:15 45.19239 5.16856 20496 ft 397 kts 188°
2026-04-21 15:15 45.16532 5.16693 20991 ft 399 kts 188°
2026-04-21 15:16 45.13748 5.16547 21490 ft 401 kts 186°
2026-04-21 15:16 45.10933 5.16559 21984 ft 406 kts 184°
2026-04-21 15:16 45.08093 5.16695 22510 ft 410 kts 183°
2026-04-21 15:16 45.05238 5.16909 23045 ft 412 kts 182°
2026-04-21 15:17 45.02359 5.17176 23581 ft 416 kts 181°
2026-04-21 15:17 44.99850 5.17436 23981 ft 419 kts 181°
2026-04-21 15:17 44.96914 5.17761 24452 ft 430 kts 181°
2026-04-21 15:17 44.93863 5.18095 24725 ft 449 kts 180°
2026-04-21 15:18 44.90659 5.18436 24854 ft 472 kts 180°
2026-04-21 15:18 44.87330 5.18793 24890 ft 486 kts 180°
2026-04-21 15:18 44.83957 5.19167 24917 ft 485 kts 180°
2026-04-21 15:18 44.81254 5.19474 24923 ft 483 kts 180°
2026-04-21 15:19 44.78168 5.19829 24930 ft 483 kts 180°
2026-04-21 15:19 44.75174 5.20175 24932 ft 484 kts 180°
2026-04-21 15:19 44.73669 5.20349 24930 ft 484 kts 180°
2026-04-21 15:19 44.70388 5.20727 24928 ft 483 kts 180°
2026-04-21 15:20 44.67077 5.21143 24923 ft 484 kts 176°
2026-04-21 15:20 44.63940 5.22486 24913 ft 495 kts 157°
2026-04-21 15:20 44.61142 5.25253 24904 ft 502 kts 139°
2026-04-21 15:20 44.58690 5.28758 24900 ft 502 kts 134°
2026-04-21 15:21 44.56392 5.32376 24905 ft 503 kts 132°
2026-04-21 15:21 44.54114 5.36096 24907 ft 503 kts 131°
2026-04-21 15:21 44.51858 5.39830 24910 ft 503 kts 131°
2026-04-21 15:21 44.49599 5.43576 24897 ft 503 kts 131°
2026-04-21 15:22 44.47335 5.47313 24897 ft 503 kts 131°
2026-04-21 15:22 44.45090 5.50990 24897 ft 503 kts 132°
2026-04-21 15:22 44.42813 5.54685 24893 ft 502 kts 132°
2026-04-21 15:22 44.40493 5.58425 24878 ft 502 kts 131°
2026-04-21 15:23 44.38359 5.62218 24882 ft 503 kts 128°
2026-04-21 15:23 44.36306 5.66163 24872 ft 503 kts 126°
2026-04-21 15:23 44.34292 5.70163 24870 ft 503 kts 126°
2026-04-21 15:23 44.32307 5.74170 24860 ft 502 kts 125°
2026-04-21 15:24 44.30323 5.78205 24873 ft 503 kts 125°
2026-04-21 15:24 44.28350 5.82238 24874 ft 504 kts 125°
2026-04-21 15:24 44.26367 5.86291 24874 ft 504 kts 125°
2026-04-21 15:24 44.24395 5.90325 24873 ft 503 kts 125°
2026-04-21 15:25 44.22424 5.94353 24870 ft 503 kts 125°
2026-04-21 15:25 44.20450 5.98385 24875 ft 504 kts 125°
2026-04-21 15:25 44.18713 6.01944 24872 ft 504 kts 124°
2026-04-21 15:25 44.16747 6.05975 24863 ft 504 kts 125°
2026-04-21 15:26 44.14806 6.09922 24866 ft 503 kts 125°
2026-04-21 15:26 44.12818 6.13960 24856 ft 503 kts 125°
2026-04-21 15:26 44.10836 6.17987 24862 ft 504 kts 125°
2026-04-21 15:26 44.08851 6.22013 24863 ft 504 kts 125°
2026-04-21 15:27 44.06858 6.26047 24869 ft 503 kts 125°
2026-04-21 15:27 44.04877 6.30053 24867 ft 503 kts 125°
2026-04-21 15:27 44.02899 6.34052 24879 ft 504 kts 125°
2026-04-21 15:27 44.00908 6.38072 24879 ft 505 kts 124°
2026-04-21 15:28 43.98910 6.42089 24887 ft 503 kts 125°
2026-04-21 15:28 43.96919 6.46090 24885 ft 502 kts 125°
2026-04-21 15:28 43.94957 6.50030 24892 ft 503 kts 126°
2026-04-21 15:28 43.92972 6.54012 24887 ft 503 kts 126°
2026-04-21 15:29 43.90982 6.57997 24892 ft 502 kts 126°
2026-04-21 15:29 43.88992 6.61978 24891 ft 502 kts 126°
2026-04-21 15:29 43.86999 6.65959 24882 ft 502 kts 126°
2026-04-21 15:29 43.85367 6.69218 24880 ft 502 kts 126°
2026-04-21 15:30 43.83678 6.72585 24883 ft 503 kts 126°
2026-04-21 15:30 43.81679 6.76559 24892 ft 503 kts 126°
2026-04-21 15:30 43.79683 6.80521 24894 ft 502 kts 126°
2026-04-21 15:30 43.77732 6.84390 24906 ft 502 kts 126°
2026-04-21 15:31 43.75729 6.88353 24915 ft 502 kts 126°
2026-04-21 15:31 43.73836 6.92042 24912 ft 501 kts 127°
2026-04-21 15:31 43.71705 6.95855 24909 ft 499 kts 130°
2026-04-21 15:31 43.69522 6.99562 24895 ft 499 kts 131°
2026-04-21 15:32 43.67285 7.03252 24903 ft 500 kts 131°
2026-04-21 15:32 43.65024 7.06915 24912 ft 500 kts 132°
2026-04-21 15:32 43.62760 7.10548 24919 ft 500 kts 132°
2026-04-21 15:32 43.60477 7.14187 24919 ft 499 kts 132°
2026-04-21 15:33 43.58199 7.17804 24921 ft 500 kts 132°
2026-04-21 15:33 43.56136 7.21487 24917 ft 502 kts 123°
2026-04-21 15:33 43.54441 7.25629 24919 ft 502 kts 118°
2026-04-21 15:33 43.52847 7.29987 24919 ft 502 kts 116°
2026-04-21 15:34 43.51341 7.34316 24922 ft 502 kts 115°
2026-04-21 15:34 43.49857 7.38685 24921 ft 502 kts 115°
2026-04-21 15:34 43.48398 7.43039 24922 ft 503 kts 114°
2026-04-21 15:34 43.46939 7.47418 24921 ft 503 kts 114°
2026-04-21 15:35 43.45504 7.51735 24925 ft 502 kts 114°
2026-04-21 15:35 43.44049 7.56117 24924 ft 502 kts 114°
2026-04-21 15:35 43.42597 7.60488 24927 ft 503 kts 114°
2026-04-21 15:35 43.41136 7.64880 24926 ft 504 kts 114°
2026-04-21 15:36 43.39675 7.69268 24928 ft 503 kts 114°
2026-04-21 15:36 43.38217 7.73637 24923 ft 503 kts 114°
2026-04-21 15:36 43.36757 7.78004 24786 ft 502 kts 114°
2026-04-21 15:36 43.35290 7.82383 24297 ft 509 kts 114°
2026-04-21 15:37 43.33824 7.86750 24587 ft 500 kts 114°
2026-04-21 15:37 43.32375 7.91063 24794 ft 506 kts 114°
2026-04-21 15:37 43.30904 7.95437 24850 ft 491 kts 115°
2026-04-21 15:37 43.29530 7.99511 24890 ft 452 kts 115°
2026-04-21 15:38 43.28252 8.03295 24905 ft 429 kts 115°
2026-04-21 15:38 43.26998 8.06999 24917 ft 431 kts 115°
2026-04-21 15:38 43.25725 8.10757 24923 ft 433 kts 115°
2026-04-21 15:38 43.24457 8.14495 24918 ft 432 kts 115°
2026-04-21 15:39 43.23190 8.18223 24917 ft 432 kts 115°
2026-04-21 15:39 43.21915 8.21972 24919 ft 433 kts 115°
2026-04-21 15:39 43.20644 8.25702 24919 ft 433 kts 115°
2026-04-21 15:39 43.19365 8.29450 24923 ft 433 kts 115°
2026-04-21 15:40 43.18088 8.33188 24922 ft 432 kts 115°
2026-04-21 15:40 43.16809 8.36924 24745 ft 437 kts 115°
2026-04-21 15:40 43.15635 8.40734 24276 ft 431 kts 107°
2026-04-21 15:40 43.14805 8.44605 23812 ft 425 kts 103°
2026-04-21 15:41 43.14094 8.48573 23311 ft 422 kts 101°
2026-04-21 15:41 43.13465 8.52430 22774 ft 418 kts 100°
2026-04-21 15:41 43.12869 8.56308 22224 ft 414 kts 99°
2026-04-21 15:41 43.12299 8.60140 21714 ft 410 kts 99°
2026-04-21 15:42 43.11744 8.63958 21199 ft 407 kts 99°
2026-04-21 15:42 43.11200 8.67743 20690 ft 404 kts 98°
2026-04-21 15:42 43.10663 8.71509 20190 ft 401 kts 98°
2026-04-21 15:42 43.10133 8.75238 19699 ft 397 kts 98°
2026-04-21 15:43 43.09609 8.78927 19216 ft 394 kts 98°
2026-04-21 15:43 43.09085 8.82613 18738 ft 391 kts 98°
2026-04-21 15:43 43.08576 8.86188 18280 ft 388 kts 98°
2026-04-21 15:43 43.08061 8.89803 17758 ft 385 kts 98°
2026-04-21 15:44 43.07549 8.93394 17219 ft 382 kts 98°
2026-04-21 15:44 43.07043 8.96934 16707 ft 379 kts 99°
2026-04-21 15:44 43.06538 9.00460 16193 ft 376 kts 99°
2026-04-21 15:44 43.05983 9.03921 15693 ft 375 kts 107°
2026-04-21 15:45 43.04919 9.07158 15202 ft 373 kts 117°
2026-04-21 15:45 43.03701 9.10223 14719 ft 370 kts 119°
2026-04-21 15:45 43.02437 9.13259 14247 ft 367 kts 120°
2026-04-21 15:45 43.01165 9.16279 13779 ft 362 kts 120°
2026-04-21 15:46 42.99933 9.19208 13246 ft 340 kts 120°
2026-04-21 15:46 42.98830 9.21850 12713 ft 304 kts 120°
2026-04-21 15:46 42.97802 9.24328 12198 ft 298 kts 120°
2026-04-21 15:46 42.97132 9.25956 11865 ft 297 kts 120°
2026-04-21 15:47 42.96158 9.28346 11377 ft 292 kts 119°
2026-04-21 15:47 42.95183 9.30768 10887 ft 290 kts 119°
2026-04-21 15:47 42.94229 9.33161 10399 ft 277 kts 119°
2026-04-21 15:47 42.93324 9.35454 9910 ft 273 kts 119°
2026-04-21 15:48 42.92429 9.37728 9420 ft 271 kts 119°
2026-04-21 15:48 42.91579 9.39905 8987 ft 253 kts 119°
2026-04-21 15:48 42.90764 9.42010 8463 ft 252 kts 119°
2026-04-21 15:48 42.89940 9.44118 7959 ft 251 kts 119°
2026-04-21 15:49 42.89126 9.46197 7459 ft 245 kts 119°
2026-04-21 15:49 42.88313 9.48279 6973 ft 245 kts 119°
2026-04-21 15:49 42.87529 9.50287 6493 ft 242 kts 119°
2026-04-21 15:49 42.86769 9.52237 6003 ft 227 kts 119°
2026-04-21 15:50 42.86025 9.54145 5502 ft 227 kts 119°
2026-04-21 15:50 42.85138 9.55873 4995 ft 219 kts 145°
2026-04-21 15:50 42.83833 9.56428 4534 ft 189 kts 193°
2026-04-21 15:50 42.82583 9.55945 4054 ft 185 kts 206°
2026-04-21 15:51 42.81416 9.55275 3581 ft 176 kts 209°
2026-04-21 15:51 42.80321 9.54557 3109 ft 177 kts 210°
2026-04-21 15:51 42.79215 9.53782 2771 ft 178 kts 210°
2026-04-21 15:51 42.78138 9.53017 2618 ft 170 kts 210°
2026-04-21 15:52 42.77097 9.52294 2549 ft 168 kts 209°
2026-04-21 15:52 42.76073 9.51595 2528 ft 166 kts 208°
2026-04-21 15:52 42.75377 9.51126 2515 ft 165 kts 208°
2026-04-21 15:52 42.73981 9.50201 2502 ft 171 kts 208°
2026-04-21 15:53 42.72919 9.49496 2505 ft 168 kts 208°
2026-04-21 15:53 42.72227 9.49030 2505 ft 166 kts 211°
2026-04-21 15:53 42.71534 9.47903 2507 ft 155 kts 255°
2026-04-21 15:53 42.71104 9.46621 2500 ft 149 kts 221°
2026-04-21 15:54 42.70140 9.46446 2513 ft 147 kts 156°
2026-04-21 15:54 42.69056 9.47064 2544 ft 192 kts 177°
2026-04-21 15:54 42.67638 9.46936 2518 ft 203 kts 187°
2026-04-21 15:54 42.66352 9.46825 2496 ft 168 kts 185°
2026-04-21 15:55 42.65200 9.46789 2171 ft 159 kts 183°
2026-04-21 15:55 42.64145 9.46798 2070 ft 144 kts 181°
2026-04-21 15:55 42.63198 9.46838 2018 ft 128 kts 181°
2026-04-21 15:55 42.62227 9.46890 2128 ft 154 kts 177°
2026-04-21 15:56 42.61166 9.46901 1837 ft 145 kts 186°
2026-04-21 15:56 42.60217 9.46690 1438 ft 131 kts 188°
2026-04-21 15:56 42.59383 9.46757 1256 ft 117 kts 166°
2026-04-21 15:56 42.58535 9.47024 947 ft 129 kts 164°
2026-04-21 15:57 42.57682 9.47346 576 ft 128 kts 161°
2026-04-21 15:57 42.56852 9.47707 230 ft 122 kts 160°
2026-04-21 15:57 42.56075 9.48030 27 ft 109 kts 162°
2026-04-21 15:57 42.55564 9.48247 31 ft 35 kts 163°
2026-04-21 15:58 42.55479 9.48282 34 ft 6 kts 163°
2026-04-21 15:58 42.55427 9.48302 33 ft 19 kts 164°
2026-04-21 15:58 42.55321 9.48348 37 ft 12 kts 161°
2026-04-21 15:58 42.55252 9.48378 36 ft 10 kts 162°
2026-04-21 15:59 42.55184 9.48407 37 ft 11 kts 162°
2026-04-21 15:59 42.55117 9.48436 37 ft 9 kts 162°
2026-04-21 15:59 42.55070 9.48456 37 ft 5 kts 162°
2026-04-21 15:59 42.55039 9.48466 37 ft 4 kts 174°
2026-04-21 16:00 42.55010 9.48459 38 ft 5 kts 201°
2026-04-21 16:00 42.54987 9.48421 38 ft 6 kts 243°
2026-04-21 16:00 42.54972 9.48370 36 ft 6 kts 249°
2026-04-21 16:00 42.54962 9.48320 36 ft 6 kts 256°
2026-04-21 16:01 42.54944 9.48267 34 ft 6 kts 230°
2026-04-21 16:01 42.54919 9.48252 34 ft 3 kts 182°
2026-04-21 16:01 42.54897 9.48254 35 ft 4 kts 172°
2026-04-21 16:01 42.54872 9.48263 33 ft 3 kts 165°
2026-04-21 16:02 42.54850 9.48271 34 ft 4 kts 163°
2026-04-21 16:02 42.54818 9.48282 34 ft 6 kts 166°
2026-04-21 16:02 42.54784 9.48286 34 ft 4 kts 192°
2026-04-21 16:02 42.54773 9.48265 33 ft 2 kts 257°
2026-04-21 16:03 42.54775 9.48241 36 ft 3 kts 279°
2026-04-21 16:03 42.54779 9.48215 37 ft 3 kts 281°
2026-04-21 16:03 42.54782 9.48191 38 ft 2 kts 282°
2026-04-21 16:03 42.54784 9.48183 38 ft 0 kts 282°